Regional Weather Roundup
Issued by NWS

Home | Current Version | Previous Version | Graphics & Text | Print | Product List | Glossary On
Versions: 1 2 3 4 5 6 7 8 9 10 11 12 13 14 15 16 17 18 19 20 21 22 23 24 25 26 27 28 29 30 31 32 33 34 35 36 37 38 39 40 41 42 43 44 45 46 47 48 49 50
000
ASUS43 KLSX 260559
RWRMO

WEATHER SUMMARY FOR MISSOURI
NATIONAL WEATHER SERVICE SPRINGFIELD MO
100 AM CDT SUN MAR 26 2017

NOTE: "FAIR" INDICATES FEW OR NO CLOUDS BELOW 12,000 FEET WITH NO
       SIGNIFICANT WEATHER AND/OR OBSTRUCTIONS TO VISIBILITY.
       CURRENT SKY AND/OR WEATHER CONDITIONS ARE NOT AVAILABLE FOR
       CHILLICOTHE AND FARMINGTON.

MOZ001>031-035>038-043-044-053-054-260700-
...NORTHERN AND WESTERN MISSOURI...

CITY           SKY/WX    TMP DP  RH WIND       PRES   REMARKS
KANSAS CTY INT CLOUDY    44  43  96 NW8       29.88F
6HR MIN TEMP:  44; 6HR MAX TEMP:  48;

KANSAS C DTWN  CLOUDY    47  43  86 NW7       29.87F
6HR MIN TEMP:  47; 6HR MAX TEMP:  52;

LEE`S SUMMIT   CLOUDY    46  45  96 NW7       29.86F
6HR MIN TEMP:  46; 6HR MAX TEMP:  53;

ST JOSEPH      CLOUDY    44  43  96 NW6       29.89F
6HR MIN TEMP:  44; 6HR MAX TEMP:  46;

CHILLICOTHE      N/A     45  44  97 NW7       29.86F
6HR MIN TEMP:  45; 6HR MAX TEMP:  50; 6HR PCP:  0.11;

KIRKSVILLE     CLOUDY    47  46  97 NW12      29.82S FOG
6HR MIN TEMP:  47; 6HR MAX TEMP:  50; 6HR PCP:  0.28;


$$
MOZ066>068-077>081-088>096-101>105-260700-
...SOUTHWEST MISSOURI...

CITY           SKY/WX    TMP DP  RH WIND       PRES   REMARKS
SPRINGFIELD    CLOUDY    47  43  86 SW8       29.89F
6HR MIN TEMP:  46; 6HR MAX TEMP:  48;

JOPLIN         CLOUDY    47  45  93 SW6       29.91F
6HR MIN TEMP:  47; 6HR MAX TEMP:  48;


$$
MOZ032>034-039>042-045>050-055>058-069>072-260700-
...CENTRAL MISSOURI...

CITY           SKY/WX    TMP DP  RH WIND       PRES   REMARKS
COLUMBIA       CLOUDY    50  50 100 SW13      29.83S FOG
6HR MIN TEMP:  50; 6HR MAX TEMP:  55; 6HR PCP:  0.01;

JEFFERSON CITY CLOUDY    52  48  86 SW6       29.85S FOG
6HR MIN TEMP:  52; 6HR MAX TEMP:  61; 6HR PCP:  0.02;

ROLLA          CLOUDY    48  46  93 SW10      29.85S
6HR MIN TEMP:  48; 6HR MAX TEMP:  54;

SEDALIA        CLOUDY    50  50 100 NW10      29.86S FOG
6HR MIN TEMP:  50; 6HR MAX TEMP:  55; 6HR PCP:  0.82;

WHITEMAN AFB   CLOUDY    48  48 100 NW6       29.85S
WARRENSBURG    CLOUDY    46  45  93 NW7       29.86F
OSAGE BEACH    CLOUDY   N/A N/A N/A SW8       29.88S HAZE

$$
MOZ051-052-059>065-260700-
...EAST CENTRAL MISSOURI...

CITY           SKY/WX    TMP DP  RH WIND       PRES   REMARKS
ST LOUIS INTL  MOCLDY    56  51  84 SW13      29.85S
6HR MIN TEMP:  56; 6HR MAX TEMP:  59; 6HR PCP:  0.28;

SPIRIT OF STL  CLOUDY    54  51  90 SW8       29.85R
6HR MIN TEMP:  54; 6HR MAX TEMP:  59; 6HR PCP:  0.01;

ST CHARLES     CLOUDY    55  53  93 SW8       29.84S
6HR MIN TEMP:  54; 6HR MAX TEMP:  58; 6HR PCP:  0.05;


$$
MOZ072>076-082>087-097>100-106>115-260700-
...SOUTH CENTRAL AND SOUTHEAST MISSOURI...

CITY           SKY/WX    TMP DP  RH WIND       PRES   REMARKS
CAPE GIRARDEAU CLOUDY    57  54  89 S9        29.89S
6HR MIN TEMP:  55; 6HR MAX TEMP:  64;

FARMINGTON     CLOUDY    54  49  83 SW6       29.88S
6HR MIN TEMP:  54; 6HR MAX TEMP:  58;

POPLAR BLUFF   CLOUDY    56  50  80 SW9       29.91R
6HR MIN TEMP:  56; 6HR MAX TEMP:  64;

WEST PLAINS    CLOUDY    49  46  90 SW7       29.91F
6HR MIN TEMP:  49; 6HR MAX TEMP:  51;


$$



USA.gov is the U.S. government's official web portal to all federal, state and local government web resources and services.